TimeCEST,TemperatureF,Dew PointF,Humidity,Sea Level PressureIn,VisibilityMPH,Wind Direction,Wind SpeedMPH,Gust SpeedMPH,PrecipitationIn,Events,Conditions,WindDirDegrees,DateUTC
12:00 AM,55.4,51.8,88,29.98,-9999.0,SE,5.8,-,N/A,,Clear,140,2012-10-05 22:00:00
1:00 AM,57.2,51.8,82,29.98,-9999.0,South,8.1,-,N/A,,Clear,170,2012-10-05 23:00:00
2:00 AM,59.0,53.6,82,29.98,-9999.0,SSW,12.7,-,N/A,,Clear,210,2012-10-06 00:00:00
4:00 AM,59.0,51.8,77,29.98,-9999.0,SW,10.4,-,N/A,,Clear,220,2012-10-06 02:00:00
6:00 AM,55.4,51.8,88,29.98,-9999.0,SSW,11.5,-,N/A,,Clear,200,2012-10-06 04:00:00
7:00 AM,55.4,51.8,88,29.98,-9999.0,South,8.1,-,N/A,,Clear,190,2012-10-06 05:00:00
8:00 AM,55.4,51.8,88,29.98,-9999.0,SE,4.6,-,N/A,,Clear,140,2012-10-06 06:00:00
9:00 AM,59.0,51.8,77,29.98,-9999.0,South,6.9,-,N/A,,Clear,180,2012-10-06 07:00:00
10:00 AM,64.4,51.8,64,29.98,-9999.0,South,8.1,-,N/A,,Clear,190,2012-10-06 08:00:00
11:00 AM,66.2,51.8,60,29.98,-9999.0,South,9.2,-,N/A,,Clear,190,2012-10-06 09:00:00
12:00 PM,69.8,51.8,53,29.95,-9999.0,SW,13.8,26.5,N/A,,Clear,220,2012-10-06 10:00:00
1:00 PM,71.6,51.8,50,29.92,-9999.0,SW,19.6,-,N/A,,Clear,220,2012-10-06 11:00:00
2:00 PM,73.4,50.0,44,29.89,-9999.0,SW,16.1,-,N/A,,Clear,230,2012-10-06 12:00:00
3:00 PM,73.4,51.8,47,29.86,-9999.0,SSW,13.8,-,N/A,,Clear,210,2012-10-06 13:00:00
5:00 PM,71.6,50.0,46,29.86,-9999.0,SW,10.4,-,N/A,,Clear,230,2012-10-06 15:00:00
6:00 PM,69.8,50.0,49,29.83,-9999.0,SW,12.7,-,N/A,,Clear,220,2012-10-06 16:00:00
7:00 PM,68.0,50.0,52,29.86,-9999.0,SW,11.5,-,N/A,,Clear,230,2012-10-06 17:00:00
8:00 PM,68.0,50.0,52,29.86,-9999.0,West,12.7,-,N/A,,Clear,270,2012-10-06 18:00:00
9:00 PM,68.0,46.4,46,29.89,-9999.0,West,27.6,40.3,N/A,,Clear,270,2012-10-06 19:00:00
10:00 PM,66.2,48.2,52,29.92,-9999.0,West,19.6,-,N/A,,Clear,270,2012-10-06 20:00:00
11:00 PM,59.0,51.8,77,29.95,6.2,NW,13.8,-,N/A,,Mostly Cloudy,310,2012-10-06 21:00:00